Andravida, Greece

10:46 AM EEST on March 28, 2017 (GMT +0300)
Andravida Air Base

Weather History for LGAD - November, 2013

Change the Weather History Date:

Tuesday, November 12, 2013

  Actual Average Record
Temperature  
Mean Temperature 62 °F -  
Max Temperature 66 °F 61 °F 78 °F (2001)
Min Temperature 58 °F 46 °F 37 °F (2006)
Degree Days  
Heating Degree Days 3    
Growing Degree Days 12 (Base 50)    
Moisture  
Dew Point 57 °F    
Average Humidity 83    
Maximum Humidity 94    
Minimum Humidity 68    
Precipitation  
Precipitation 0.63 in - - ()
Sea Level Pressure  
Sea Level Pressure 29.96 in    
Wind  
Wind Speed 7 mph ()    
Max Wind Speed 17 mph    
Max Gust Speed -    
Visibility 5.8 miles    
Events Rain , Thunderstorm    
Averages and records for this station are not official NWS values.
T = Trace of Precipitation, MM = Missing Value Source: Averaged Metar Reports

Daily Weather History Graph

Daily Weather History Graph

Search for Another Location

Airport or City:

Trip Planner

Search our weather history database for the weather conditions in past years. The results will help you decide how hot, cold, wet, or windy it might be!

Date:

Astronomy

Nov. 12, 2013 Rise Set
Actual Time 7:12 AM EET 5:25 PM EET
Civil Twilight 6:44 AM EET 5:53 PM EET
Nautical Twilight 6:12 AM EET 6:24 PM EET
Astronomical Twilight 5:41 AM EET 6:55 PM EET
Moon 2:24 PM EET (11/12) 1:47 AM EET (11/12)
Length of Visible Light 11h 09m
Length of Day
10h 13m
Waxing Gibbous, 73% of the Moon is Illuminated
Nov 12
Waxing Gibbous
Nov 17
Full
Nov 25
Last Quarter
Dec 3
New
Dec 9
First Quarter

Hourly Weather History & Observations

Time (EET) Temp. Dew Point Humidity Pressure Visibility Wind Dir Wind Speed Gust Speed Precip Events Conditions
12:20 AM 59.0 °F 57.2 °F 94% 29.89 in 6.2 mi East 6.9 mph - N/A   Mostly Cloudy
12:50 AM 60.8 °F 55.4 °F 82% 29.89 in 6.2 mi East 11.5 mph - N/A   Mostly Cloudy
1:20 AM 60.8 °F 55.4 °F 82% 29.89 in 6.2 mi East 11.5 mph - N/A   Mostly Cloudy
1:50 AM 62.6 °F 57.2 °F 82% 29.89 in 6.2 mi WNW 4.6 mph - N/A   Mostly Cloudy
2:00 AM 63 °F 57 °F 74% 29.91 in 6 mi WNW 4.6 mph - -   Partly Cloudy
2:20 AM 60.8 °F 57.2 °F 88% 29.89 in 6.2 mi Calm Calm - N/A   Mostly Cloudy
2:50 AM 60.8 °F 57.2 °F 88% 29.89 in 6.2 mi West 4.6 mph - N/A   Mostly Cloudy
3:20 AM 60.8 °F 57.2 °F 88% 29.89 in 6.2 mi WSW 4.6 mph - N/A Rain , Thunderstorm Light Thunderstorms and Rain
4:50 AM 59.0 °F 57.2 °F 94% 29.92 in 6.2 mi East 9.2 mph - N/A Rain , Thunderstorm Light Thunderstorms and Rain
6:50 AM 59.0 °F 57.2 °F 94% 29.92 in 6.2 mi East 6.9 mph - N/A   Mostly Cloudy
7:20 AM 59.0 °F 57.2 °F 94% 29.92 in 6.2 mi East 6.9 mph - N/A   Mostly Cloudy
7:50 AM 60.8 °F 57.2 °F 88% 29.95 in 6.2 mi WSW 10.4 mph - N/A   Mostly Cloudy
8:00 AM 61 °F 58 °F 85% 29.96 in 6 mi WSW 10.4 mph - -   Partly Cloudy
8:20 AM 60.8 °F 57.2 °F 88% 29.95 in 5.0 mi East 9.2 mph - N/A Rain Light Rain
8:50 AM 60.8 °F 59.0 °F 94% 29.95 in 6.2 mi East 5.8 mph - N/A   Mostly Cloudy
9:20 AM 60.8 °F 59.0 °F 94% 29.95 in 6.2 mi East 5.8 mph - N/A   Mostly Cloudy
9:50 AM 60.8 °F 57.2 °F 88% 29.95 in 6.2 mi Calm Calm - N/A   Mostly Cloudy
10:20 AM 59.0 °F 57.2 °F 94% 30.01 in 1.9 mi SSE 8.1 mph - N/A Rain , Thunderstorm Thunderstorms and Rain
10:50 AM 60.8 °F 57.2 °F 88% 30.01 in 2.5 mi ESE 9.2 mph - N/A Rain , Thunderstorm Light Thunderstorms and Rain
11:50 AM 60.8 °F 57.2 °F 88% 30.01 in 3.1 mi East 10.4 mph - N/A Rain Rain
12:20 PM 60.8 °F 57.2 °F 88% 30.01 in 4.3 mi ESE 13.8 mph - N/A Rain Light Rain
12:50 PM 62.6 °F 59.0 °F 88% 30.01 in 5.0 mi ESE 10.4 mph - N/A   Mostly Cloudy
1:20 PM 62.6 °F 59.0 °F 88% 30.01 in 5.0 mi ESE 10.4 mph - N/A   Mostly Cloudy
1:50 PM 64.4 °F 57.2 °F 77% 29.98 in 6.2 mi ESE 11.5 mph - N/A   Mostly Cloudy
2:00 PM 64 °F 58 °F 75% 29.99 in 6 mi ESE 11.5 mph - -   Partly Cloudy
2:20 PM 64.4 °F 57.2 °F 77% 29.98 in 6.2 mi ESE 11.5 mph - N/A   Mostly Cloudy
2:50 PM 66.2 °F 57.2 °F 73% 29.95 in 6.2 mi ESE 17.3 mph - N/A   Mostly Cloudy
3:20 PM 66.2 °F 57.2 °F 73% 29.95 in 6.2 mi ESE 17.3 mph - N/A   Mostly Cloudy
3:50 PM 66.2 °F 55.4 °F 68% 29.95 in 6.2 mi ESE 11.5 mph - N/A   Mostly Cloudy
4:20 PM 66.2 °F 55.4 °F 68% 29.95 in 6.2 mi ESE 11.5 mph - N/A   Mostly Cloudy
4:50 PM 66.2 °F 55.4 °F 68% 29.95 in 6.2 mi Calm Calm - N/A   Mostly Cloudy
5:20 PM 64.4 °F 55.4 °F 73% 29.95 in 6.2 mi Calm Calm - N/A   Mostly Cloudy
5:50 PM 64.4 °F 57.2 °F 77% 29.95 in 6.2 mi North 5.8 mph - N/A   Mostly Cloudy
6:20 PM 64.4 °F 57.2 °F 77% 29.95 in 6.2 mi North 5.8 mph - N/A   Mostly Cloudy
6:50 PM 62.6 °F 57.2 °F 82% 29.98 in 6.2 mi NNE 5.8 mph - N/A   Mostly Cloudy
7:20 PM 62.6 °F 57.2 °F 82% 29.98 in 6.2 mi NNE 5.8 mph - N/A   Mostly Cloudy
7:50 PM 60.8 °F 55.4 °F 82% 29.98 in 6.2 mi Calm Calm - N/A   Mostly Cloudy
8:00 PM 61 °F 56 °F 78% 29.98 in 6 mi Calm Calm - -   Scattered Clouds
8:20 PM 60.8 °F 55.4 °F 82% 29.98 in 6.2 mi Calm Calm - N/A   Mostly Cloudy
8:50 PM 59.0 °F 55.4 °F 88% 29.98 in 6.2 mi Calm Calm - N/A   Mostly Cloudy
9:20 PM 59.0 °F 55.4 °F 88% 29.98 in 6.2 mi Calm Calm - N/A   Mostly Cloudy
9:50 PM 60.8 °F 55.4 °F 82% 29.98 in 6.2 mi South 5.8 mph - N/A   Mostly Cloudy
10:20 PM 60.8 °F 55.4 °F 82% 29.98 in 6.2 mi South 5.8 mph - N/A   Mostly Cloudy
10:50 PM 62.6 °F 53.6 °F 72% 29.98 in 6.2 mi SSE 4.6 mph - N/A   Mostly Cloudy
11:20 PM 62.6 °F 53.6 °F 72% 29.98 in 6.2 mi SSE 4.6 mph - N/A   Mostly Cloudy
11:50 PM 59.0 °F 53.6 °F 82% 29.98 in 6.2 mi Calm Calm - N/A   Mostly Cloudy